Tracking 17265 objects as of 4-September-2015
HD Live streaming from Space Station

Track Soyuz TMA-18M
and Space Station

MOLNIYA 3-51

Track MOLNIYA 3-51 now!
MOLNIYA 3-51 is classified as:


NORAD ID: 26867
Int'l Code: 2001-030A
Perigee: 286.9 km
Apogee: 32,562.5 km
Inclination: 62.5 °
Period: 570.9 minutes
Semi major axis: 22795 km
RCS: 12.5893 m2 (large)
Launch date: July 20, 2001
Source: Commonwealth of Independent States (former USSR) (CIS)

Can carry satellite broadcast television as well as military and manned voice communcations; highly elliptical orbit developed for northern latitudes beyond reach of geostationary satellites.
Your satellite tracking list
Your tracking list is empty





NASA's NSSDC Master Catalog

Two Line Element Set (TLE):
1 26867U 01030A   15245.75529924 +.00000560 +00000-0 +11637-3 0  9995
2 26867 062.4529 204.5818 7079326 262.4943 311.8496 02.52245673106185

Source of the keplerian elements: AFSPC

N2YO: 285